Location: Pinhey's Point
(45.4411°N, 75.9539°W)
Time: 10:21:49
(UTC-05:00)

Daily predictions for brighter satellites

Satellite Brightness Start Highest point End
(mag) Time Altitude Azimuth Time Altitude Azimuth Time Altitude Azimuth
Ariane Rocket 3.6 16:46:31 10° S 16:51:33 65° WSW 16:56:36 10° NNW
Cosmos 1536 Rocket 4.3 16:48:46 10° SSE 16:52:49 35° E 16:56:53 10° NNE
SJ-12 4.4 16:49:05 10° SE 16:52:53 38° ENE 16:56:44 10° N
Cosmos 1844 3.7 16:47:31 10° SSW 16:53:04 82° ESE 16:58:40 10° NNE
Meteor 2-19 Rocket 4.4 16:54:12 10° N 17:00:17 81° E 17:06:21 10° SSE
YAOGAN 1 2.9 16:58:49 10° SE 17:02:53 42° ENE 17:06:59 10° N
SPOT 3 Rocket 3.7 16:58:53 10° SE 17:03:54 53° ENE 17:08:56 10° N
Cosmos 2278 Rocket 2.3 17:01:31 10° SSW 17:07:06 66° ESE 17:12:43 10° NNE
COSMOS 2487 2.7 17:03:54 10° N 17:07:23 46° ENE 17:10:51 10° SE
Meteor 1-18 Rocket 4.3 17:02:19 10° S 17:07:55 63° E 17:13:38 10° NNE
USA 32 4.0 17:03:36 10° S 17:08:48 80° E 17:14:03 10° N
SL-8 R/B 3.7 17:04:44 10° WSW 17:09:30 80° SSE 17:14:01 12° ENE
Intercosmos 25 4.3 17:08:00 10° NNE 17:10:20 18° ENE 17:12:41 10° ESE
Okean 1 3.7 17:06:48 10° SSE 17:10:40 46° E 17:14:35 10° NNE
EP 2 4.4 17:10:58 10° SW 17:13:33 74° NW 17:16:18 11° NE
SL-16 R/B 4.5 17:08:52 10° N 17:13:40 24° WNW 17:18:28 10° WSW
SMAP 3.0 17:11:21 10° SSE 17:15:57 63° ENE 17:20:33 10° N
Cosmos 1346 Rocket 3.3 17:12:59 10° SSE 17:16:33 35° E 17:20:07 10° NNE
Cosmos 1666 4.4 17:15:02 10° NNE 17:17:15 15° ENE 17:19:28 10° ESE
Cosmos 1455 Rocket 3.1 17:13:17 10° N 17:17:43 86° W 17:22:10 10° S
Genesis I 3.6 17:15:18 10° NW 17:19:13 67° WSW 17:23:05 10° SSE
Cosmos 1833 Rocket 2.9 17:17:53 10° NNW 17:23:24 49° ENE 17:28:50 10° SE
ISS -2.0 17:23:02 10° WNW 17:25:59 30° N 17:28:02 16° NE
Cosmos 1809 Rocket 4.4 17:23:57 10° N 17:30:05 64° ENE 17:36:08 10° SSE
Cosmos 2082 Rocket 2.2 17:24:54 10° NNW 17:30:33 64° ENE 17:36:11 10° SE
IDEFIX/ARIANE 42P 2.6 17:27:48 10° SSE 17:33:00 90° WSW 17:38:13 10° NNW
Thor Agena Rocket 3.5 17:29:57 10° NNE 17:35:12 78° ESE 17:40:29 10° S
Cosmos 1500 3.1 17:35:03 10° N 17:38:55 89° SE 17:42:46 10° S
Cosmos 1743 3.0 17:35:17 10° N 17:39:00 42° ENE 17:42:41 10° SSE
Tiangong 1 1.9 17:38:00 10° WSW 17:40:51 38° SSE 17:42:20 22° ESE
NOSS 2-1 (E) 4.1 17:39:13 10° S 17:42:47 35° ESE 17:44:42 23° ENE
Okean 1-7 Rocket 3.9 17:39:02 10° SSE 17:43:17 43° E 17:47:19 11° NNE
Meteor 1-19 Rocket 4.5 17:41:58 10° SSE 17:47:31 49° E 17:53:10 10° NNE
Cosmos 1934 Rocket 4.4 17:41:56 10° N 17:47:45 40° ENE 17:53:36 10° SE
Cosmos 1484 Rocket 2.6 17:51:15 10° SSE 17:54:57 65° ENE 17:58:40 10° N
USA 234 3.2 17:53:20 20° NE 17:58:13 86° SE 18:04:46 10° SW
Cosmos 1975 4.1 17:54:50 10° NNW 17:58:42 43° W 18:02:31 10° SSW
Cosmos 1606 Rocket 3.9 18:01:07 10° N 18:05:25 43° ENE 18:09:41 10° SSE
CZ-4 R/B 3.7 18:04:00 10° SSW 18:07:34 28° W 18:11:08 10° NW
Meteor 2-9 Rocket 4.1 18:03:12 10° N 18:08:33 55° ENE 18:13:46 10° SSE
Cosmos 2239 Rocket 4.4 18:02:27 10° N 18:08:40 72° E 18:14:48 10° SSE
Meteor 1-13 Rocket 4.2 18:04:08 10° S 18:09:51 89° ESE 18:15:45 10° N
MSX 4.2 18:04:49 10° S 18:10:31 66° WSW 18:16:15 10° NNW
Meteor 1-23 Rocket 4.4 18:06:04 10° SSE 18:11:31 48° E 18:14:52 22° NNE
Cosmos 2369 Rocket 4.2 18:08:16 10° SE 18:08:54 12° SE 18:08:54 12° SE
COSMO-SKYMED 1 2.4 18:09:50 21° NNE 18:12:45 73° ESE 18:17:04 10° S
NOSS 3-4 (A) 3.7 18:06:45 10° NW 18:13:44 77° NE 18:21:09 10° SE
NOSS 3-4 (C) 3.7 18:06:50 10° NW 18:13:50 76° NE 18:21:15 10° SE
Meteor 2-4 Rocket 3.6 18:10:22 10° S 18:15:37 58° E 18:19:05 21° NNE
CZ-2C R/B 4.1 18:11:11 10° SSW 18:15:49 36° W 18:20:35 10° NNW
Cosmos 407 Rocket 3.5 18:14:51 10° NNW 18:19:52 51° ENE 18:21:58 32° ESE
CZ-3B DEB 3.0 18:15:22 10° W 18:19:53 59° NNW 18:25:58 25° NE
BREEZE-M DEB (TANK) 4.5 17:55:59 10° W 18:20:09 55° NNW 18:23:20 31° NE
Cosmos 1821 Rocket 3.8 18:14:32 10° N 18:20:41 84° E 18:26:47 10° S
Cosmos 2056 Rocket 3.6 18:17:09 10° S 18:22:22 55° ESE 18:23:51 41° NE
Cosmos 921 Rocket 3.4 18:22:13 10° SSW 18:26:26 60° WNW 18:28:57 24° N
Cosmos 1025 Rocket 2.9 18:22:08 10° S 18:26:30 80° E 18:28:11 38° NNE
NOAA 12 4.0 18:21:18 10° SSE 18:26:31 69° ENE 18:31:45 10° N
ERBS 4.3 18:24:55 10° NNW 18:26:20 19° NNW 18:26:20 19° NNW
Cosmos 676 Rocket 4.3 18:25:01 10° N 18:29:28 44° NE 18:29:28 44° NE
Cosmos 1605 Rocket 3.9 18:25:07 10° N 18:31:22 59° ENE 18:37:28 10° SSE
Cosmos 1624 Rocket 3.8 18:30:11 10° SSW 18:35:22 77° ESE 18:36:48 48° NE
Cosmos 1371 Rocket 4.1 18:35:43 10° SSW 18:41:05 80° WNW 18:43:24 35° NNE
Cosmos 2297 4.5 18:36:13 10° SW 18:41:40 49° WNW 18:45:18 21° N
METEOR-M 4.0 18:44:14 10° SSE 18:49:35 89° WSW 18:54:58 10° NNW
Cosmos 2278 Rocket 4.1 18:47:10 10° WSW 18:51:41 24° NW 18:55:53 11° N
SL-8 R/B 3.9 18:47:31 10° W 18:52:00 59° NNW 18:52:00 59° NNW
Cosmos 1666 3.7 18:49:30 10° NNW 18:53:12 45° W 18:56:55 10° SSW
BREEZE-M R/B 3.7 18:48:03 10° W 18:56:40 64° NNW 18:57:05 62° N
GEOS 3 Rocket 3.6 19:00:07 62° S 19:00:55 76° SW 19:06:05 10° NW
ISS -0.4 19:00:07 10° NW 19:00:42 14° NW 19:00:42 14° NW
Cosmos 1727 Rocket 3.8 19:04:57 10° S 19:10:52 79° SE 19:10:52 79° SE
FALCON 9 R/B 3.8 19:05:37 10° W 19:22:39 42° SSW 19:24:36 36° SSE
USA 234 4.0 19:40:41 43° NNW 19:40:54 43° NNW 19:46:58 10° W
Cosmos 2369 Rocket 4.3 19:49:20 10° SSW 19:50:46 19° SSW 19:50:46 19° SSW
CZ-3B DEB 4.4 20:48:41 10° WNW 20:53:54 46° NNW 20:53:54 46° NNW
